,,,PA_Meas_PMT16A,,PR_Meas_QMR101_102,,RH_Meas_QMH101,,SR_Meas_QMS101,,TA_Meas_QMH101,,GenWind,,GenWind,
date,time,status,PA,status,PR,status,RH,status,SR,status,TA,status,DirAvg,status,SpdAvg,
2010-08-04, 00:00:05,VALID,999.453,VALID,0,VALID,92.5702,VALID,0,VALID,23.4458,VALID,117,VALID,0,
2010-08-04, 00:01:05,VALID,999.481,VALID,0,VALID,92.6083,VALID,0,VALID,23.4458,VALID,117,VALID,0,
2010-08-04, 00:02:05,VALID,999.508,VALID,0,VALID,92.6388,VALID,0,VALID,23.4671,VALID,117,VALID,0,
2010-08-04, 00:03:05,VALID,999.543,VALID,0,VALID,92.6617,VALID,0,VALID,23.4475,VALID,117,VALID,0,
2010-08-04, 00:04:05,VALID,999.503,VALID,0,VALID,92.7075,VALID,0.112286,VALID,23.4475,VALID,117,VALID,0,
2010-08-04, 00:05:05,VALID,999.534,VALID,0,VALID,92.7457,VALID,0,VALID,23.4475,VALID,117,VALID,0,
2010-08-04, 00:06:05,VALID,999.527,VALID,0,VALID,92.7914,VALID,0,VALID,23.4263,VALID,117,VALID,0,
2010-08-04, 00:07:05,VALID,999.503,VALID,0,VALID,92.8296,VALID,0,VALID,23.4475,VALID,117,VALID,0,
2010-08-04, 00:08:05,VALID,999.485,VALID,0,VALID,92.8448,VALID,0,VALID,23.4067,VALID,117,VALID,0,
2010-08-04, 00:09:05,VALID,999.446,VALID,0,VALID,92.883,VALID,0,VALID,23.428,VALID,117,VALID,0,
2010-08-04, 00:10:05,VALID,999.418,VALID,0,VALID,92.9135,VALID,0,VALID,23.4067,VALID,117,VALID,0,
2010-08-04, 00:11:05,VALID,999.411,VALID,0,VALID,92.9288,VALID,0,VALID,23.4085,VALID,115,VALID,0,
2010-08-04, 00:12:05,VALID,999.401,VALID,0,VALID,92.9517,VALID,0,VALID,23.3872,VALID,115,VALID,0,
2010-08-04, 00:13:05,VALID,999.374,VALID,0,VALID,92.9822,VALID,0,VALID,23.3872,VALID,115,VALID,0,
2010-08-04, 00:14:05,VALID,999.401,VALID,0,VALID,92.9898,VALID,0,VALID,23.3872,VALID,115,VALID,0,
2010-08-04, 00:15:05,VALID,999.39,VALID,0,VALID,93.0127,VALID,0,VALID,23.3677,VALID,115,VALID,0,
2010-08-04, 00:16:05,VALID,999.38,VALID,0,VALID,93.028,VALID,0,VALID,23.3872,VALID,115,VALID,0,
2010-08-04, 00:17:05,VALID,999.379,VALID,0,VALID,93.0508,VALID,0,VALID,23.3872,VALID,115,VALID,0,
2010-08-04, 00:18:05,VALID,999.369,VALID,0,VALID,93.0737,VALID,0,VALID,23.4067,VALID,115,VALID,0,
2010-08-04, 00:19:05,VALID,999.398,VALID,0,VALID,93.1043,VALID,0,VALID,23.3872,VALID,115,VALID,0,
2010-08-04, 00:20:05,VALID,999.39,VALID,0,VALID,93.1577,VALID,0,VALID,23.428,VALID,115,VALID,0,
2010-08-04, 00:21:05,VALID,999.451,VALID,0,VALID,93.1577,VALID,0,VALID,23.3872,VALID,115,VALID,0,
2010-08-04, 00:22:05,VALID,999.445,VALID,0,VALID,93.1729,VALID,0,VALID,23.428,VALID,115,VALID,0,
2010-08-04, 00:23:05,VALID,999.476,VALID,0,VALID,93.2034,VALID,0,VALID,23.4067,VALID,338,VALID,0,
2010-08-04, 00:24:05,VALID,999.478,VALID,0,VALID,93.2111,VALID,0,VALID,23.428,VALID,313,VALID,0,
2010-08-04, 00:25:05,VALID,999.523,VALID,0,VALID,93.234,VALID,0,VALID,23.4475,VALID,313,VALID,0,
2010-08-04, 00:26:05,VALID,999.527,VALID,0,VALID,93.2187,VALID,0,VALID,23.4475,VALID,313,VALID,0,
2010-08-04, 00:27:05,VALID,999.512,VALID,0,VALID,93.2187,VALID,0,VALID,23.4475,VALID,313,VALID,0,
2010-08-04, 00:28:05,VALID,999.503,VALID,0,VALID,93.2263,VALID,0,VALID,23.4263,VALID,313,VALID,0,
2010-08-04, 00:29:05,VALID,999.5,VALID,0,VALID,93.2416,VALID,0,VALID,23.4067,VALID,313,VALID,0,
2010-08-04, 00:30:05,VALID,999.496,VALID,0,VALID,93.234,VALID,0,VALID,23.4085,VALID,313,VALID,0,
2010-08-04, 00:31:05,VALID,999.469,VALID,0,VALID,93.2263,VALID,0,VALID,23.3872,VALID,310,VALID,0,
2010-08-04, 00:32:05,VALID,999.465,VALID,0,VALID,93.2263,VALID,0,VALID,23.3872,VALID,310,VALID,0,
2010-08-04, 00:33:05,VALID,999.482,VALID,0,VALID,93.2111,VALID,0,VALID,23.4085,VALID,310,VALID,0,
2010-08-04, 00:34:05,VALID,999.49,VALID,0,VALID,93.2492,VALID,0,VALID,23.3677,VALID,283,VALID,0,
2010-08-04, 00:35:05,VALID,999.496,VALID,0,VALID,93.2645,VALID,0,VALID,23.3872,VALID,255,VALID,0.656641,
2010-08-04, 00:36:05,VALID,999.469,VALID,0,VALID,93.2568,VALID,0,VALID,23.3872,VALID,255,VALID,0.554297,
2010-08-04, 00:37:05,VALID,999.413,VALID,0,VALID,93.2492,VALID,0,VALID,23.389,VALID,260,VALID,0.400391,
2010-08-04, 00:38:05,VALID,999.446,VALID,0,VALID,93.2416,VALID,0,VALID,23.3677,VALID,248,VALID,0.125,
2010-08-04, 00:39:05,VALID,999.417,VALID,0,VALID,93.2111,VALID,0,VALID,23.389,VALID,248,VALID,0,
2010-08-04, 00:40:05,VALID,999.434,VALID,0,VALID,93.1958,VALID,0,VALID,23.3677,VALID,248,VALID,0,
2010-08-04, 00:41:05,VALID,999.419,VALID,0,VALID,93.1882,VALID,0,VALID,23.389,VALID,248,VALID,0,
2010-08-04, 00:42:05,VALID,999.411,VALID,0,VALID,93.1882,VALID,0,VALID,23.389,VALID,248,VALID,0,
2010-08-04, 00:43:05,VALID,999.396,VALID,0,VALID,93.1882,VALID,0,VALID,23.3677,VALID,248,VALID,0,
2010-08-04, 00:44:05,VALID,999.339,VALID,0,VALID,93.1729,VALID,0,VALID,23.3677,VALID,273,VALID,0,
2010-08-04, 00:45:05,VALID,999.284,VALID,0,VALID,93.1424,VALID,0,VALID,23.3482,VALID,273,VALID,0,
2010-08-04, 00:46:05,VALID,999.249,VALID,0,VALID,93.089,VALID,0,VALID,23.3677,VALID,273,VALID,0,
2010-08-04, 00:47:05,VALID,999.214,VALID,0,VALID,93.0432,VALID,0,VALID,23.3695,VALID,273,VALID,0,
2010-08-04, 00:48:05,VALID,999.16,VALID,0,VALID,93.028,VALID,0,VALID,23.35,VALID,273,VALID,0,
2010-08-04, 00:49:05,VALID,999.152,VALID,0,VALID,93.0051,VALID,0,VALID,23.3305,VALID,273,VALID,0,
2010-08-04, 00:50:05,VALID,999.107,VALID,0,VALID,92.9745,VALID,0,VALID,23.3092,VALID,297,VALID,0,
2010-08-04, 00:51:05,VALID,999.083,VALID,0,VALID,92.9974,VALID,0,VALID,23.2897,VALID,297,VALID,0,
2010-08-04, 00:52:05,VALID,999.056,VALID,0,VALID,93.0051,VALID,0,VALID,23.2897,VALID,298,VALID,0,
2010-08-04, 00:53:05,VALID,999.034,VALID,0,VALID,93.028,VALID,0,VALID,23.2702,VALID,341,VALID,0,
2010-08-04, 00:54:05,VALID,998.979,VALID,0,VALID,93.0585,VALID,0,VALID,23.2719,VALID,360,VALID,0,
2010-08-04, 00:55:05,VALID,998.947,VALID,0,VALID,93.0356,VALID,0,VALID,23.2524,VALID,5,VALID,0,
2010-08-04, 00:56:05,VALID,998.944,VALID,0,VALID,93.0432,VALID,0,VALID,23.2329,VALID,17,VALID,0,
2010-08-04, 00:57:05,VALID,998.927,VALID,0,VALID,93.0432,VALID,0,VALID,23.1921,VALID,28,VALID,0.75625,
2010-08-04, 00:58:05,VALID,998.932,VALID,0,VALID,93.0661,VALID,0,VALID,23.1939,VALID,33,VALID,1.08164,
2010-08-04, 00:59:05,VALID,998.907,VALID,0,VALID,93.0737,VALID,0,VALID,23.1726,VALID,43,VALID,1.125,
2010-08-04, 01:00:05,VALID,998.97,VALID,0,VALID,93.1271,VALID,0,VALID,23.1726,VALID,46,VALID,0.809766,
2010-08-04, 01:01:05,VALID,998.944,VALID,0,VALID,93.1348,VALID,0,VALID,23.1549,VALID,39,VALID,0.905469,
2010-08-04, 01:02:05,VALID,998.912,VALID,0,VALID,93.1424,VALID,0,VALID,23.1336,VALID,29,VALID,0.774609,
2010-08-04, 01:03:05,VALID,998.874,VALID,0,VALID,93.1424,VALID,0,VALID,23.1354,VALID,14,VALID,0.669922,
2010-08-04, 01:04:05,VALID,998.879,VALID,0,VALID,93.1348,VALID,0,VALID,23.0946,VALID,19,VALID,0.579297,
2010-08-04, 01:05:05,VALID,998.856,VALID,0,VALID,93.1424,VALID,0,VALID,23.0964,VALID,21,VALID,0.192969,
2010-08-04, 01:06:05,VALID,998.823,VALID,0,VALID,93.1653,VALID,0,VALID,23.0751,VALID,44,VALID,0,
2010-08-04, 01:07:05,VALID,998.782,VALID,0,VALID,93.1882,VALID,0,VALID,23.0946,VALID,53,VALID,0,
2010-08-04, 01:08:05,VALID,998.753,VALID,0,VALID,93.2187,VALID,0,VALID,23.1159,VALID,44,VALID,0.6875,
2010-08-04, 01:09:05,VALID,998.727,VALID,0,VALID,93.2416,VALID,0,VALID,23.0964,VALID,60,VALID,1.04609,
2010-08-04, 01:10:05,VALID,998.723,VALID,0,VALID,93.2874,VALID,0,VALID,23.1141,VALID,67,VALID,0.894141,
2010-08-04, 01:11:05,VALID,998.736,VALID,0,VALID,93.3255,VALID,0,VALID,23.1141,VALID,76,VALID,0.896484,
2010-08-04, 01:12:05,VALID,998.732,VALID,0,VALID,93.3713,VALID,0,VALID,23.1549,VALID,68,VALID,0.850781,
2010-08-04, 01:13:05,VALID,998.74,VALID,0,VALID,93.3637,VALID,0,VALID,23.1549,VALID,60,VALID,0.941406,
2010-08-04, 01:14:05,VALID,998.765,VALID,0,VALID,93.3789,VALID,0,VALID,23.1744,VALID,36,VALID,0.883984,
2010-08-04, 01:15:05,VALID,998.731,VALID,0,VALID,93.3713,VALID,0,VALID,23.1549,VALID,354,VALID,0.968359,
2010-08-04, 01:16:05,VALID,998.727,VALID,0,VALID,93.3637,VALID,0,VALID,23.1549,VALID,337,VALID,0.64375,
2010-08-04, 01:17:05,VALID,998.715,VALID,0,VALID,93.3637,VALID,0,VALID,23.1354,VALID,314,VALID,0.626953,
2010-08-04, 01:18:05,VALID,998.708,VALID,0,VALID,93.3866,VALID,0,VALID,23.1549,VALID,360,VALID,0.950391,
2010-08-04, 01:19:05,VALID,998.684,VALID,0,VALID,93.356,VALID,0,VALID,23.1354,VALID,25,VALID,1.28047,
2010-08-04, 01:20:05,VALID,998.635,VALID,0,VALID,93.3408,VALID,0,VALID,23.1159,VALID,29,VALID,1.16953,
2010-08-04, 01:21:05,VALID,998.637,VALID,0,VALID,93.3179,VALID,0,VALID,23.1141,VALID,23,VALID,1.23477,
2010-08-04, 01:22:05,VALID,998.628,VALID,0,VALID,93.3255,VALID,0,VALID,23.1549,VALID,34,VALID,0.720703,
2010-08-04, 01:23:05,VALID,998.62,VALID,0,VALID,93.2797,VALID,0,VALID,23.1744,VALID,34,VALID,1.03086,
2010-08-04, 01:24:05,VALID,998.596,VALID,0,VALID,93.2797,VALID,0,VALID,23.1744,VALID,41,VALID,1.10273,
2010-08-04, 01:25:05,VALID,998.588,VALID,0,VALID,93.2645,VALID,0,VALID,23.1549,VALID,32,VALID,0.849219,
2010-08-04, 01:26:05,VALID,998.588,VALID,0,VALID,93.2568,VALID,0,VALID,23.1549,VALID,38,VALID,1.24453,
2010-08-04, 01:27:05,VALID,998.579,VALID,0,VALID,93.2416,VALID,0,VALID,23.1549,VALID,57,VALID,0.8,
2010-08-04, 01:28:05,VALID,998.594,VALID,0,VALID,93.2721,VALID,0,VALID,23.1549,VALID,64,VALID,0.414844,
2010-08-04, 01:29:05,VALID,998.638,VALID,0,VALID,93.2568,VALID,0,VALID,23.1549,VALID,75,VALID,0,
2010-08-04, 01:30:05,VALID,998.644,VALID,0,VALID,93.2721,VALID,0,VALID,23.1354,VALID,75,VALID,0,
2010-08-04, 01:31:05,VALID,998.661,VALID,0,VALID,93.2645,VALID,0,VALID,23.1354,VALID,75,VALID,0,
2010-08-04, 01:32:05,VALID,998.659,VALID,0,VALID,93.2721,VALID,0,VALID,23.1354,VALID,75,VALID,0,
2010-08-04, 01:33:05,VALID,998.641,VALID,0,VALID,93.2874,VALID,0,VALID,23.1159,VALID,75,VALID,0,
2010-08-04, 01:34:05,VALID,998.596,VALID,0,VALID,93.2797,VALID,0,VALID,23.1159,VALID,75,VALID,0,
2010-08-04, 01:35:05,VALID,998.594,VALID,0,VALID,93.2874,VALID,0,VALID,23.0964,VALID,75,VALID,0,
2010-08-04, 01:36:05,VALID,998.601,VALID,0,VALID,93.2874,VALID,0,VALID,23.0964,VALID,70,VALID,0,
2010-08-04, 01:37:05,VALID,998.568,VALID,0,VALID,93.295,VALID,0,VALID,23.0769,VALID,48,VALID,0,
2010-08-04, 01:38:05,VALID,998.615,VALID,0,VALID,93.3103,VALID,0,VALID,23.0769,VALID,43,VALID,0,
2010-08-04, 01:39:05,VALID,998.584,VALID,0,VALID,93.3179,VALID,0,VALID,23.0556,VALID,38,VALID,0,
2010-08-04, 01:40:05,VALID,998.587,VALID,0,VALID,93.3331,VALID,0,VALID,23.0769,VALID,38,VALID,0,
2010-08-04, 01:41:05,VALID,998.596,VALID,0,VALID,93.3255,VALID,0,VALID,23.0573,VALID,38,VALID,0,
2010-08-04, 01:42:05,VALID,998.572,VALID,0,VALID,93.3179,VALID,0,VALID,23.0378,VALID,38,VALID,0,
2010-08-04, 01:43:05,VALID,998.572,VALID,0,VALID,93.3255,VALID,0,VALID,23.0166,VALID,38,VALID,0,
2010-08-04, 01:44:05,VALID,998.55,VALID,0,VALID,93.3484,VALID,0,VALID,23.0378,VALID,38,VALID,0,
2010-08-04, 01:45:05,VALID,998.565,VALID,0,VALID,93.3789,VALID,0,VALID,23.0378,VALID,38,VALID,0,
2010-08-04, 01:46:05,VALID,998.571,VALID,0,VALID,93.4018,VALID,0,VALID,23.0378,VALID,38,VALID,0,
2010-08-04, 01:47:05,VALID,998.587,VALID,0,VALID,93.4094,VALID,0,VALID,23.0183,VALID,38,VALID,0,
2010-08-04, 01:48:05,VALID,998.648,VALID,0,VALID,93.44,VALID,0,VALID,23.0183,VALID,38,VALID,0,
2010-08-04, 01:49:05,VALID,998.647,VALID,0,VALID,93.4552,VALID,0,VALID,22.9988,VALID,38,VALID,0,
2010-08-04, 01:50:05,VALID,998.665,VALID,0,VALID,93.4323,VALID,0,VALID,22.9971,VALID,80,VALID,0.0800781,
2010-08-04, 01:51:05,VALID,998.711,VALID,0,VALID,93.4934,VALID,0,VALID,23.0378,VALID,147,VALID,0.766016,
2010-08-04, 01:52:05,VALID,998.745,VALID,0,VALID,93.5315,VALID,0,VALID,23.0751,VALID,153,VALID,0.722266,
2010-08-04, 01:53:05,VALID,998.734,VALID,0,VALID,93.5544,VALID,0,VALID,23.0964,VALID,153,VALID,0.997656,
2010-08-04, 01:54:05,VALID,998.722,VALID,0,VALID,93.5773,VALID,0,VALID,23.1141,VALID,135,VALID,1.0207,
2010-08-04, 01:55:05,VALID,998.738,VALID,0,VALID,93.562,VALID,0,VALID,23.1354,VALID,123,VALID,1.30273,
2010-08-04, 01:56:05,VALID,998.707,VALID,0,VALID,93.562,VALID,0,VALID,23.1354,VALID,120,VALID,1.37422,
2010-08-04, 01:57:05,VALID,998.709,VALID,0,VALID,93.5544,VALID,0,VALID,23.1354,VALID,119,VALID,1.24531,
2010-08-04, 01:58:05,VALID,998.711,VALID,0,VALID,93.5468,VALID,0,VALID,23.1549,VALID,114,VALID,1.2457,
2010-08-04, 01:59:05,VALID,998.688,VALID,0,VALID,93.5391,VALID,0,VALID,23.1549,VALID,111,VALID,1.27617,
2010-08-04, 02:00:05,VALID,998.675,VALID,0,VALID,93.5391,VALID,0,VALID,23.1939,VALID,112,VALID,1.46367,
2010-08-04, 02:01:05,VALID,998.647,VALID,0,VALID,93.5163,VALID,0,VALID,23.1939,VALID,117,VALID,1.21797,
2010-08-04, 02:02:05,VALID,998.666,VALID,0,VALID,93.5239,VALID,0,VALID,23.2134,VALID,109,VALID,0.863281,
2010-08-04, 02:03:05,VALID,998.658,VALID,0,VALID,93.5086,VALID,0,VALID,23.1726,VALID,108,VALID,1.70313,
2010-08-04, 02:04:05,VALID,998.64,VALID,0,VALID,93.4857,VALID,0,VALID,23.1921,VALID,113,VALID,1.73945,
2010-08-04, 02:05:05,VALID,998.656,VALID,0,VALID,93.501,VALID,0,VALID,23.2329,VALID,117,VALID,1.33086,
2010-08-04, 02:06:05,VALID,998.65,VALID,0,VALID,93.501,VALID,0,VALID,23.2524,VALID,123,VALID,1.47422,
2010-08-04, 02:07:05,VALID,998.645,VALID,0,VALID,93.5086,VALID,0,VALID,23.2719,VALID,121,VALID,1.21211,
2010-08-04, 02:08:05,VALID,998.608,VALID,0,VALID,93.4857,VALID,0,VALID,23.2719,VALID,114,VALID,1.68945,
2010-08-04, 02:09:05,VALID,998.613,VALID,0,VALID,93.4705,VALID,0,VALID,23.2915,VALID,113,VALID,1.20156,
2010-08-04, 02:10:05,VALID,998.603,VALID,0,VALID,93.4476,VALID,0,VALID,23.2915,VALID,115,VALID,1.56797,
2010-08-04, 02:11:05,VALID,998.593,VALID,0,VALID,93.44,VALID,0,VALID,23.2897,VALID,105,VALID,1.45781,
2010-08-04, 02:12:05,VALID,998.639,VALID,0,VALID,93.4094,VALID,0,VALID,23.3305,VALID,113,VALID,0.8875,
2010-08-04, 02:13:05,VALID,998.627,VALID,0,VALID,93.3866,VALID,0,VALID,23.3305,VALID,101,VALID,1.29414,
2010-08-04, 02:14:05,VALID,998.609,VALID,0,VALID,93.3408,VALID,0,VALID,23.35,VALID,103,VALID,1.55742,
2010-08-04, 02:15:05,VALID,998.621,VALID,0,VALID,93.295,VALID,0,VALID,23.35,VALID,98,VALID,1.10742,
2010-08-04, 02:16:05,VALID,998.637,VALID,0,VALID,93.234,VALID,0,VALID,23.3287,VALID,95,VALID,1.15352,
2010-08-04, 02:17:05,VALID,998.649,VALID,0,VALID,93.1882,VALID,0,VALID,23.3695,VALID,98,VALID,1.54336,
2010-08-04, 02:18:05,VALID,998.64,VALID,0,VALID,93.1653,VALID,0,VALID,23.3695,VALID,95,VALID,1.38477,
2010-08-04, 02:19:05,VALID,998.657,VALID,0,VALID,93.1119,VALID,0,VALID,23.3695,VALID,101,VALID,1.37109,
2010-08-04, 02:20:05,VALID,998.643,VALID,0,VALID,93.1043,VALID,0,VALID,23.3695,VALID,115,VALID,0.754297,
2010-08-04, 02:21:05,VALID,998.651,VALID,0,VALID,93.0966,VALID,0,VALID,23.389,VALID,111,VALID,0.905078,
2010-08-04, 02:22:05,VALID,998.675,VALID,0,VALID,93.0661,VALID,0,VALID,23.3677,VALID,104,VALID,1.22891,
2010-08-04, 02:23:05,VALID,998.649,VALID,0,VALID,93.0508,VALID,0,VALID,23.3872,VALID,108,VALID,0.608984,
2010-08-04, 02:24:05,VALID,998.664,VALID,0,VALID,93.0203,VALID,0,VALID,23.389,VALID,109,VALID,1.37578,
2010-08-04, 02:25:05,VALID,998.605,VALID,0,VALID,92.9517,VALID,0,VALID,23.428,VALID,99,VALID,1.09297,
2010-08-04, 02:26:05,VALID,998.619,VALID,0,VALID,92.8906,VALID,0,VALID,23.4475,VALID,118,VALID,0.644922,
2010-08-04, 02:27:05,VALID,998.592,VALID,0,VALID,92.822,VALID,0,VALID,23.4671,VALID,99,VALID,0.520312,
2010-08-04, 02:28:05,VALID,998.585,VALID,0,VALID,92.7533,VALID,0,VALID,23.4866,VALID,118,VALID,0,
2010-08-04, 02:29:05,VALID,998.581,VALID,0,VALID,92.6846,VALID,0,VALID,23.4866,VALID,101,VALID,0,
2010-08-04, 02:30:05,VALID,998.545,VALID,0,VALID,92.6465,VALID,0,VALID,23.5061,VALID,101,VALID,0,
2010-08-04, 02:31:05,VALID,998.561,VALID,0,VALID,92.6007,VALID,0,VALID,23.5061,VALID,101,VALID,0,
2010-08-04, 02:32:05,VALID,998.588,VALID,0,VALID,92.5702,VALID,0,VALID,23.5061,VALID,101,VALID,0,
2010-08-04, 02:33:04,VALID,998.593,VALID,0,VALID,92.5397,VALID,0,VALID,23.5061,VALID,101,VALID,0,
2010-08-04, 02:34:04,VALID,998.574,VALID,0,VALID,92.4939,VALID,0,VALID,23.5061,VALID,38,VALID,0,
2010-08-04, 02:35:04,VALID,998.558,VALID,0,VALID,92.4328,VALID,0,VALID,23.5256,VALID,10,VALID,0,
2010-08-04, 02:36:04,VALID,998.578,VALID,0,VALID,92.3642,VALID,0,VALID,23.5451,VALID,334,VALID,0,
2010-08-04, 02:37:04,VALID,998.552,VALID,0,VALID,92.3718,VALID,0,VALID,23.5646,VALID,303,VALID,0,
2010-08-04, 02:38:04,VALID,998.515,VALID,0,VALID,92.3642,VALID,0,VALID,23.5646,VALID,308,VALID,0,
2010-08-04, 02:39:04,VALID,998.475,VALID,0.5,VALID,92.3642,VALID,0,VALID,23.5451,VALID,348,VALID,0,
2010-08-04, 02:40:04,VALID,998.411,VALID,0,VALID,92.3184,VALID,0,VALID,23.5238,VALID,352,VALID,0,
2010-08-04, 02:41:04,VALID,998.395,VALID,0,VALID,92.3413,VALID,0,VALID,23.5646,VALID,9,VALID,0,
2010-08-04, 02:42:04,VALID,998.376,VALID,0,VALID,92.3794,VALID,0,VALID,23.5238,VALID,20,VALID,0,
2010-08-04, 02:43:04,VALID,998.357,VALID,0,VALID,92.4023,VALID,0,VALID,23.5433,VALID,17,VALID,0,
2010-08-04, 02:44:04,VALID,998.334,VALID,0.5,VALID,92.4252,VALID,0,VALID,23.5238,VALID,351,VALID,0,
2010-08-04, 02:45:04,VALID,998.317,VALID,0,VALID,92.4939,VALID,0,VALID,23.5451,VALID,349,VALID,0,
2010-08-04, 02:46:04,VALID,998.295,VALID,0,VALID,92.5626,VALID,0,VALID,23.5256,VALID,350,VALID,0,
2010-08-04, 02:47:04,VALID,998.301,VALID,0,VALID,92.5931,VALID,0,VALID,23.5061,VALID,350,VALID,0,
2010-08-04, 02:48:04,VALID,998.323,VALID,0,VALID,92.6465,VALID,0,VALID,23.4653,VALID,350,VALID,0,
2010-08-04, 02:49:04,VALID,998.329,VALID,0,VALID,92.7304,VALID,0,VALID,23.4475,VALID,333,VALID,0,
2010-08-04, 02:50:04,VALID,998.322,VALID,0,VALID,92.8143,VALID,0,VALID,23.4475,VALID,314,VALID,0,
2010-08-04, 02:51:04,VALID,998.321,VALID,0.5,VALID,92.8525,VALID,0,VALID,23.4263,VALID,304,VALID,0,
2010-08-04, 02:52:04,VALID,998.32,VALID,0,VALID,92.944,VALID,0,VALID,23.428,VALID,304,VALID,0,
2010-08-04, 02:53:04,VALID,998.331,VALID,0,VALID,93.0127,VALID,0,VALID,23.4067,VALID,304,VALID,0,
2010-08-04, 02:54:04,VALID,998.322,VALID,0,VALID,93.0661,VALID,0,VALID,23.428,VALID,307,VALID,0,
2010-08-04, 02:55:04,VALID,998.357,VALID,0,VALID,93.1195,VALID,0,VALID,23.4067,VALID,313,VALID,0,
2010-08-04, 02:56:04,VALID,998.355,VALID,0,VALID,93.1729,VALID,0,VALID,23.4475,VALID,313,VALID,0,
2010-08-04, 02:57:04,VALID,998.323,VALID,0,VALID,93.2263,VALID,0,VALID,23.4263,VALID,309,VALID,1.03164,
2010-08-04, 02:58:04,VALID,998.321,VALID,0,VALID,93.2416,VALID,0,VALID,23.4475,VALID,297,VALID,0.819922,
2010-08-04, 02:59:04,VALID,998.336,VALID,0.5,VALID,93.2568,VALID,0,VALID,23.4671,VALID,303,VALID,0.448438,
2010-08-04, 03:00:04,VALID,998.329,VALID,0,VALID,93.295,VALID,0,VALID,23.4475,VALID,303,VALID,0,
2010-08-04, 03:01:04,VALID,998.344,VALID,0.5,VALID,93.3103,VALID,0,VALID,23.4475,VALID,303,VALID,0,
2010-08-04, 03:02:04,VALID,998.318,VALID,0,VALID,93.356,VALID,0,VALID,23.4475,VALID,303,VALID,0,
2010-08-04, 03:03:04,VALID,998.311,VALID,0.5,VALID,93.356,VALID,0,VALID,23.4458,VALID,303,VALID,0,
2010-08-04, 03:04:04,VALID,998.31,VALID,0.5,VALID,93.3789,VALID,0,VALID,23.4263,VALID,303,VALID,0,
2010-08-04, 03:05:04,VALID,998.294,VALID,1,VALID,93.3942,VALID,0,VALID,23.4475,VALID,303,VALID,0,
2010-08-04, 03:06:04,VALID,998.312,VALID,1,VALID,93.3866,VALID,0,VALID,23.4067,VALID,303,VALID,0,
2010-08-04, 03:07:04,VALID,998.308,VALID,0.5,VALID,93.4323,VALID,0,VALID,23.4475,VALID,303,VALID,0,
2010-08-04, 03:08:04,VALID,998.274,VALID,1,VALID,93.4628,VALID,0,VALID,23.4263,VALID,303,VALID,0,
2010-08-04, 03:09:04,VALID,998.276,VALID,0.5,VALID,93.4934,VALID,0,VALID,23.4263,VALID,303,VALID,0,
2010-08-04, 03:10:04,VALID,998.247,VALID,1,VALID,93.5086,VALID,0,VALID,23.4263,VALID,303,VALID,0,
2010-08-04, 03:11:04,VALID,998.227,VALID,0.5,VALID,93.562,VALID,0,VALID,23.4263,VALID,88,VALID,0,
2010-08-04, 03:12:04,VALID,998.239,VALID,0,VALID,93.5849,VALID,0,VALID,23.4263,VALID,90,VALID,0,
2010-08-04, 03:13:04,VALID,998.298,VALID,0,VALID,93.6231,VALID,0,VALID,23.4458,VALID,90,VALID,0,
2010-08-04, 03:14:04,VALID,998.302,VALID,0,VALID,93.6154,VALID,0,VALID,23.4671,VALID,200,VALID,0.594531,
2010-08-04, 03:15:04,VALID,998.334,VALID,0.5,VALID,93.6688,VALID,0,VALID,23.4866,VALID,247,VALID,0.474219,
2010-08-04, 03:16:04,VALID,998.3,VALID,0,VALID,93.6765,VALID,0,VALID,23.4653,VALID,247,VALID,0.398438,
2010-08-04, 03:17:04,VALID,998.323,VALID,0,VALID,93.6917,VALID,0,VALID,23.4653,VALID,247,VALID,0.378516,
2010-08-04, 03:18:04,VALID,998.34,VALID,0,VALID,93.6841,VALID,0,VALID,23.5256,VALID,236,VALID,0,
2010-08-04, 03:19:04,VALID,998.366,VALID,0.5,VALID,93.7223,VALID,0,VALID,23.5256,VALID,242,VALID,1.80703,
2010-08-04, 03:20:04,VALID,998.342,VALID,0,VALID,93.7375,VALID,0,VALID,23.5451,VALID,234,VALID,1.62539,
2010-08-04, 03:21:04,VALID,998.333,VALID,0,VALID,93.7375,VALID,0,VALID,23.5256,VALID,218,VALID,1.76602,
2010-08-04, 03:22:04,VALID,998.316,VALID,0.5,VALID,93.7299,VALID,0,VALID,23.5451,VALID,213,VALID,2.25273,
2010-08-04, 03:23:04,VALID,998.266,VALID,0,VALID,93.7604,VALID,0,VALID,23.5043,VALID,217,VALID,2.24922,
2010-08-04, 03:24:04,VALID,998.273,VALID,1,VALID,93.7757,VALID,0,VALID,23.5256,VALID,229,VALID,1.95469,
2010-08-04, 03:25:04,VALID,998.239,VALID,0.5,VALID,93.7833,VALID,0,VALID,23.5043,VALID,228,VALID,1.25234,
2010-08-04, 03:26:04,VALID,998.192,VALID,0.5,VALID,93.7985,VALID,0,VALID,23.4848,VALID,139,VALID,0.564453,
2010-08-04, 03:27:04,VALID,998.205,VALID,0.5,VALID,93.7985,VALID,0,VALID,23.5061,VALID,202,VALID,0.979297,
2010-08-04, 03:28:04,VALID,998.157,VALID,0.5,VALID,93.8138,VALID,0,VALID,23.5043,VALID,210,VALID,1.08633,
2010-08-04, 03:29:04,VALID,998.127,VALID,0,VALID,93.8062,VALID,0,VALID,23.5061,VALID,205,VALID,0.8625,
2010-08-04, 03:30:04,VALID,998.112,VALID,0.5,VALID,93.8291,VALID,0,VALID,23.4653,VALID,205,VALID,0.0148437,
2010-08-04, 03:31:04,VALID,998.077,VALID,0,VALID,93.8367,VALID,0,VALID,23.4671,VALID,312,VALID,0.378516,
2010-08-04, 03:32:04,VALID,998.071,VALID,0.5,VALID,93.8367,VALID,0,VALID,23.4475,VALID,261,VALID,0.223047,
2010-08-04, 03:33:04,VALID,998.079,VALID,0,VALID,93.852,VALID,0,VALID,23.4085,VALID,277,VALID,0.0109375,
2010-08-04, 03:34:04,VALID,998.077,VALID,0,VALID,93.852,VALID,0,VALID,23.3305,VALID,251,VALID,0.875781,
2010-08-04, 03:35:04,VALID,998.093,VALID,0,VALID,93.8367,VALID,0,VALID,23.2915,VALID,248,VALID,0,
2010-08-04, 03:36:04,VALID,998.09,VALID,0.5,VALID,93.8367,VALID,0,VALID,23.2507,VALID,248,VALID,0,
2010-08-04, 03:37:04,VALID,998.092,VALID,0,VALID,93.8367,VALID,0,VALID,23.2524,VALID,248,VALID,0,
2010-08-04, 03:38:04,VALID,998.134,VALID,0,VALID,93.8367,VALID,0,VALID,23.2117,VALID,244,VALID,0,
2010-08-04, 03:39:04,VALID,998.139,VALID,0,VALID,93.8443,VALID,0,VALID,23.2134,VALID,179,VALID,0,
2010-08-04, 03:40:04,VALID,998.108,VALID,0,VALID,93.8367,VALID,0,VALID,23.1921,VALID,179,VALID,0,
2010-08-04, 03:41:04,VALID,998.143,VALID,0,VALID,93.8443,VALID,0,VALID,23.2329,VALID,170,VALID,1.42969,
2010-08-04, 03:42:04,VALID,998.145,VALID,0,VALID,93.8367,VALID,0,VALID,23.2897,VALID,173,VALID,1.38828,
2010-08-04, 03:43:04,VALID,998.114,VALID,0,VALID,93.8214,VALID,0,VALID,23.3092,VALID,157,VALID,1.57813,
2010-08-04, 03:44:04,VALID,998.109,VALID,0,VALID,93.8214,VALID,0,VALID,23.3092,VALID,150,VALID,1.53086,
2010-08-04, 03:45:04,VALID,998.093,VALID,0,VALID,93.8291,VALID,0,VALID,23.3482,VALID,144,VALID,1.27891,
2010-08-04, 03:46:04,VALID,998.086,VALID,0,VALID,93.8062,VALID,0,VALID,23.389,VALID,140,VALID,1.56602,
2010-08-04, 03:47:04,VALID,998.06,VALID,0,VALID,93.8138,VALID,0,VALID,23.3872,VALID,138,VALID,1.22227,
2010-08-04, 03:48:04,VALID,998.039,VALID,0,VALID,93.8062,VALID,0,VALID,23.4085,VALID,139,VALID,1.42539,
2010-08-04, 03:49:04,VALID,998.047,VALID,0,VALID,93.768,VALID,0.112286,VALID,23.389,VALID,137,VALID,1.29219,
2010-08-04, 03:50:04,VALID,998.05,VALID,0,VALID,93.7451,VALID,0,VALID,23.3482,VALID,128,VALID,1.4082,
2010-08-04, 03:51:04,VALID,998.013,VALID,0,VALID,93.7299,VALID,0,VALID,23.35,VALID,127,VALID,1.31992,
2010-08-04, 03:52:04,VALID,997.995,VALID,0,VALID,93.7146,VALID,0,VALID,23.35,VALID,120,VALID,1.18359,
2010-08-04, 03:53:04,VALID,997.996,VALID,0,VALID,93.6917,VALID,0,VALID,23.3092,VALID,116,VALID,1.17695,